Weather History for Worland, WY

Change the Weather History Date:

Sunday, May 19, 2013

  Actual Average Record
Temperature  
Mean Temperature 54 °F 56 °F  
Max Temperature 59 °F 71 °F 95 °F (1992)
Min Temperature 48 °F 42 °F 29 °F (1966)
Degree Days  
Heating Degree Days 11 9  
Month to date heating degree days 165 222  
Since 1 July heating degree days 7344 7689  
Cooling Degree Days 0 0  
Month to date cooling degree days 16 0  
Year to date cooling degree days 16 1  
Growing Degree Days 2 (Base 50)    
Moisture  
Dew Point 46 °F    
Average Humidity 78    
Maximum Humidity 93    
Minimum Humidity 62    
Precipitation  
Precipitation 0.21 in 0.05 in 0.50 in (1975)
Month to date precipitation 0.78 0.85  
Year to date precipitation 2.35 2.59  
Sea Level Pressure  
Sea Level Pressure 29.89 in    
Wind  
Wind Speed 16 mph (NNW)    
Max Wind Speed 22 mph    
Max Gust Speed 30 mph    
Visibility 9 miles    
Events Rain    
T = Trace of Precipitation, MM = Missing Value Source: NWS Daily Summary

Daily Weather History Graph

Daily Weather History Graph

Search for Another Location

Airport:

Trip Planner

Search our weather history database for the weather conditions in past years. The results will help you decide how hot, cold, wet, or windy it might be!

Date:

Astronomy

May. 19, 2013 Rise Set
Actual Time 5:41 AM MDT 8:35 PM MDT
Civil Twilight 5:07 AM MDT 9:09 PM MDT
Nautical Twilight 4:24 AM MDT 9:53 PM MDT
Astronomical Twilight 3:34 AM MDT 10:43 PM MDT
Moon 2:31 PM MDT (5/19) 2:19 AM MDT (5/19)
Length of Visible Light 16h 02m
Length of Day
14h 54m
Waxing Gibbous, 66% of the Moon is Illuminated
May 19
Waxing Gibbous
May 24
Full
May 31
Last Quarter
Jun 8
New
Jun 16
First Quarter

Hourly Weather History & Observations

Time (MDT) Temp. Dew Point Humidity Pressure Visibility Wind Dir Wind Speed Gust Speed Precip Events Conditions
12:53 AM 53.1 °F 46.0 °F 77% 29.86 in 10.0 mi NNW 8.1 mph - N/A   Overcast
1:53 AM 52.0 °F 45.0 °F 77% 29.86 in 10.0 mi NW 8.1 mph - N/A   Overcast
2:53 AM 51.1 °F 45.0 °F 80% 29.86 in 9.0 mi North 5.8 mph - 0.00 in Rain Light Rain
3:34 AM 51.8 °F 44.6 °F 76% 29.90 in 10.0 mi NNW 11.5 mph - 0.01 in   Overcast
4:27 AM 48.2 °F 46.4 °F 93% 29.90 in 7.0 mi North 5.8 mph - 0.03 in Rain Light Rain
4:53 AM 50.0 °F 46.0 °F 86% 29.85 in 10.0 mi NW 5.8 mph - 0.03 in Rain Light Rain
6:29 AM 48.2 °F 46.4 °F 93% 29.89 in 2.0 mi NNW 5.8 mph - 0.06 in Rain Rain
6:43 AM 48.2 °F 46.4 °F 93% 29.90 in 5.0 mi NW 11.5 mph - 0.08 in Rain Light Rain
6:53 AM 48.9 °F 46.0 °F 90% 29.85 in 6.0 mi NW 8.1 mph - 0.08 in Rain Light Rain
7:53 AM 50.0 °F 46.0 °F 86% 29.85 in 10.0 mi NNW 12.7 mph 20.7 mph 0.01 in   Overcast
8:24 AM 50.0 °F 48.2 °F 94% 29.89 in 2.5 mi NNW 16.1 mph - 0.03 in Rain Rain
8:32 AM 50.0 °F 48.2 °F 94% 29.89 in 5.0 mi NNW 16.1 mph 21.9 mph 0.03 in Rain Light Rain
8:48 AM 50.0 °F 46.4 °F 87% 29.89 in 10.0 mi NW 15.0 mph 23.0 mph 0.03 in   Overcast
8:53 AM 50.0 °F 46.9 °F 89% 29.86 in 10.0 mi NW 15.0 mph 23.0 mph 0.03 in   Overcast
9:35 AM 50.0 °F 46.4 °F 87% 29.89 in 5.0 mi NNW 20.7 mph - 0.02 in Rain Light Rain
9:53 AM 51.1 °F 46.9 °F 86% 29.86 in 10.0 mi NW 11.5 mph - 0.02 in Rain Light Rain
10:53 AM 53.1 °F 48.9 °F 86% 29.85 in 10.0 mi NW 19.6 mph 27.6 mph 0.00 in Rain Light Rain
11:03 AM 53.6 °F 48.2 °F 82% 29.89 in 10.0 mi NW 19.6 mph 26.5 mph 0.00 in   Overcast
11:53 AM 55.0 °F 48.0 °F 77% 29.84 in 10.0 mi NW 19.6 mph - 0.00 in   Overcast
12:37 PM 55.4 °F 46.4 °F 72% 29.88 in 10.0 mi NNW 21.9 mph 28.8 mph N/A   Overcast
1:16 PM 57.2 °F 46.4 °F 67% 29.88 in 10.0 mi NW 23.0 mph 29.9 mph N/A   Mostly Cloudy
2:11 PM 57.2 °F 44.6 °F 63% 29.88 in 10.0 mi NNW 24.2 mph 32.2 mph N/A   Overcast
2:34 PM 57.2 °F 44.6 °F 63% 29.88 in 10.0 mi NNW 28.8 mph 38.0 mph N/A   Mostly Cloudy
2:53 PM 57.9 °F 44.1 °F 60% 29.83 in 10.0 mi NNW 31.1 mph 39.1 mph N/A   Mostly Cloudy
3:53 PM 54.0 °F 42.1 °F 64% 29.88 in 10.0 mi NNW 23.0 mph 40.3 mph 0.00 in   Overcast
4:53 PM 50.0 °F 43.0 °F 77% 29.90 in 10.0 mi NNW 21.9 mph 31.1 mph 0.01 in Rain Light Rain
5:53 PM 50.0 °F 43.0 °F 77% 29.91 in 10.0 mi NNW 25.3 mph 29.9 mph 0.00 in   Overcast
6:53 PM 48.9 °F 43.0 °F 80% 29.93 in 10.0 mi NNW 18.4 mph 25.3 mph 0.01 in Rain Light Rain
7:53 PM 48.0 °F 43.0 °F 83% 29.95 in 10.0 mi NW 12.7 mph 24.2 mph 0.01 in Rain Light Rain
8:53 PM 48.9 °F 43.0 °F 80% 29.95 in 10.0 mi NNW 13.8 mph 20.7 mph 0.00 in   Overcast
10:53 PM 48.9 °F 44.1 °F 83% 29.96 in 10.0 mi NNW 17.3 mph 27.6 mph N/A   Overcast
11:53 PM 48.0 °F 44.1 °F 86% 29.95 in 10.0 mi NNW 12.7 mph - N/A   Mostly Cloudy